Location: Goldmont Forest
(38.0233°N, 120.2524°W)
Time: 22:27:20
(UTC+00:00)

Cosmos 1939 Rocket - Pass Details

Date: 05 August 2024
Orbit: 511 x 553 km, 97.5° (Epoch: 08 September)

Event Time Altitude Azimuth Distance (km) Brightness Sun altitude
Rises 12:07:10 0° 21° (NNE) 2,637 7.2 -11.5°
Reaches altitude 10° 12:09:23 10° 30° (NNE) 1,749 6.4 -11.1°
Maximum altitude 12:12:52 36° 98° (E) 844 4.3 -10.5°
Drops below altitude 10° 12:16:22 10° 166° (SSE) 1,756 5.2 -9.9°
Sets 12:18:36 0° 175° (S) 2,647 6.1 -9.6°
